Torna al catalogo

OPS 8781

AttivoNavigazioneLEO
NORAD 10502·PAYLOAD·🇺🇸 United States

Lanciato Dec 8, 1977 da Vandenberg Space Force Base

Loading…

Prossimi Passaggi (prossime 24 ore)

TLE

AggiornatoSource: Space-Track

Epoca: Sep 14, 2026, 05:30 UTC

1 10502U 77112A   26257.22982007  .00000344  00000-0  11074-3 0  9995
2 10502  63.3309 204.5083 0457190 163.9727 197.6366 14.07528302120606

Traccia OPS 8781 in tempo reale con AllMySat

Download on the App Store